Location: Vihti�l�
(61.3833°N, 23.0667°E)
Time: 03:46:23
(UTC+00:00)

SMAP - Pass Details

Date: 29 November 2020
Orbit: 681 x 683 km, 98.1° (Epoch: 18 January)

Event Time Altitude Azimuth Distance (km) Brightness Sun altitude
Rises 04:36:21 0° 19° (NNE) 3,065 6.5 -16.4°
Reaches altitude 10° 04:38:41 10° 25° (NNE) 2,144 5.7 -16.2°
Maximum altitude 04:43:13 46° 99° (E) 919 4.2 -15.7°
Drops below altitude 10° 04:47:42 10° 173° (S) 2,128 5.9 -15.1°
Sets 04:50:01 0° 180° (S) 3,039 6.6 -14.9°
